Hourly Data Report for October 21, 2016

All times are specified in Local Standard Time (LST). Add 1 hour to adjust for Daylight Saving Time where and when it is observed.

PETAWAWA AWOS 2
ONTARIO

45°57'00.000" N
77°19'00.000" W
130.10 m
6106396
71625
YWA

Download Data

Hourly Data (October 2016)
Hourly Data Report for October 21, 2016
Temp Definition
°C
Dew Point Temp Definition
°C
Rel Hum Definition
%
Wind Dir Definition
10's deg

Wind Spd Definition
km/h
Visibility Definition
km
Stn Press Definition
kPa
Hmdx Definition


Wind Chill Definition


Weather Definition


TIME
00:00 10.2 10.2 100 33 7 9.7 100.02     Rain
01:00 10.0 9.6 97 34 13 14.5 99.98     Rain
02:00 9.3 8.3 94 34 17 14.5 99.98     LegendNANA
03:00 8.6 7.0 90 35 26 14.5 99.96     Rain
04:00 7.9 6.4 90 35 22 14.5 99.95     Rain
05:00 8.1 5.8 85 35 20 14.5 99.95     Drizzle
06:00 8.1 5.6 84 36 20 14.5 99.87     LegendNANA
07:00 8.4 5.1 80 35 19 14.5 99.84     LegendNANA
08:00 8.2 4.9 80 33 19 14.5 99.88     Drizzle
09:00 8.3 4.9 79 35 20 14.5 99.83     LegendNANA
10:00 8.5 4.9 78 34 20 14.5 99.84     LegendNANA
11:00 8.9 4.9 76 34 17 14.5 99.84     LegendNANA
12:00 8.9 4.2 72 2 22 14.5 99.75     LegendNANA
13:00 8.7 4.0 72 35 24 14.5 99.73     LegendNANA
14:00 8.6 3.2 69 35 17 14.5 99.77     LegendNANA
15:00 8.2 2.8 69 34 24 14.5 99.74     LegendNANA
16:00 7.9 2.5 69 34 20 14.5 99.73     LegendNANA
17:00 7.5 1.9 68 34 26 14.5 99.74     Drizzle
18:00 7.0 0.9 65 34 19 14.5 99.74     Drizzle
19:00 6.5 -0.3 62 34 20 14.5 99.73     Rain
20:00 6.0 -0.4 64 34 19 14.5 99.69     LegendNANA
21:00 5.8 -0.2 65 34 30 14.5 99.61     LegendNANA
22:00 5.7 0.0 67 34 20 14.5 99.58     Rain
23:00 5.5 0.0 68 33 17 14.5 99.51     Rain

Notes on Data Quality.

Legend

  • E = Estimated
  • M = Missing
  • NA = Not Available
  • ‡ = Partner data that is not subject to review by the National Climate Archives
Date modified: